Vancouver, WA
on Monday, December 10, 2012

Monday
Previous Day Next Day
Daily Summary
 ActualAverageRecord
Temperature
Mean Temperature °F 41°F  
Max Temperature 53°F 47°F 63°F (1933)
Min Temperature 40°F 35°F 9°F (1932)
Degree Days
Heating Degree Days 18    
Month to date heating degree days 184  
Since 1 July heating degree days 1006  
Cooling Degree Days 0    
Month to date cooling degree days 0  
Year to date cooling degree days 398  
Moisture
Dew Point 43°F   
Average Humidity 86    
Maximum Humidity 100    
Minimum Humidity 71    
Precipitation
Precipitation 0.00 in 0.20 in 1.83 in (1992)
Month to date precipitation 2.45 2.02  
Year to date precipitation 40.77 34.39  
Snow
Snow 0.00 in in in ()
Month to date snowfall 0.0  
Since 1 July snowfall 0.0  
Snow Depth 0.00 in   
Wind
Wind Speed 1 mph   
Max Wind Speed 6 mph   
Max Gust Speed 9 mph   
Visibility 9 miles   
Events     

Key: T is trace of precipitation, MM is missing value
Source: NWS Daily Summary
Time(PST)TemperatureDew PointHumidity Pressure Visibility Wind DirectionWind SpeedGust SpeedPrecipitationEvents Conditions
12:53 AM 48.0°F 46.0°F 93% 30.39 in 10.0 miles Calm Calm - N/A   Overcast
1:46 AM 46.4°F 46.4°F 100% 30.37 in 8.0 miles Calm Calm - N/A   Overcast
1:53 AM 46.9°F 46.0°F 97% 30.38 in 7.0 miles Calm Calm - N/A   Overcast
2:53 AM 48.0°F 45.0°F 89% 30.39 in 9.0 miles North 3.5 mph - N/A   Overcast
3:53 AM 46.9°F 45.0°F 93% 30.40 in 10.0 miles Calm Calm - N/A   Overcast
4:53 AM 46.9°F 45.0°F 93% 30.42 in 10.0 miles Calm Calm - N/A   Overcast
5:14 AM 46.4°F 44.6°F 93% 30.42 in 10.0 miles Calm Calm - N/A   Overcast
5:40 AM 46.4°F 44.6°F 93% 30.42 in 10.0 miles Calm Calm - N/A   Overcast
5:53 AM 46.9°F 45.0°F 93% 30.41 in 10.0 miles Calm Calm - N/A   Overcast
6:36 AM 44.6°F 42.8°F 93% 30.42 in 1.5 miles Calm Calm - N/A   Mostly Cloudy
6:44 AM 44.6°F 42.8°F 93% 30.42 in 1.5 miles Calm Calm - N/A   Scattered Clouds
6:47 AM 44.6°F 42.8°F 93% 30.43 in 3.0 miles Calm Calm - N/A   Scattered Clouds
6:53 AM 43.0°F 42.1°F 97% 30.43 in 4.0 miles Calm Calm - N/A   Mostly Cloudy
7:01 AM 44.6°F 42.8°F 93% 30.42 in 5.0 miles Calm Calm - N/A   Mostly Cloudy
7:09 AM 44.6°F 42.8°F 93% 30.42 in 5.0 miles Calm Calm - N/A   Overcast
7:20 AM 44.6°F 42.8°F 93% 30.42 in 6.0 miles Calm Calm - N/A   Overcast
7:53 AM 46.0°F 44.1°F 93% 30.43 in 8.0 miles Calm Calm - N/A   Overcast
8:53 AM 46.9°F 45.0°F 93% 30.43 in 7.0 miles Calm Calm - N/A   Overcast
9:53 AM 48.0°F 45.0°F 89% 30.43 in 10.0 miles Calm Calm - N/A   Overcast
10:53 AM 50.0°F 44.1°F 80% 30.43 in 10.0 miles West 3.5 mph - N/A   Overcast
11:53 AM 50.0°F 44.1°F 80% 30.42 in 10.0 miles WNW 4.6 mph - N/A   Mostly Cloudy
12:53 PM 50.0°F 44.1°F 80% 30.39 in 10.0 miles Calm Calm - N/A   Overcast
1:28 PM 51.8°F 42.8°F 71% 30.38 in 10.0 miles Calm Calm - N/A   Mostly Cloudy
1:53 PM 51.1°F 43.0°F 74% 30.38 in 10.0 miles Calm Calm - N/A   Overcast
2:06 PM 51.8°F 42.8°F 71% 30.37 in 10.0 miles Calm Calm - N/A   Overcast
2:20 PM 51.8°F 42.8°F 71% 30.37 in 10.0 miles Calm Calm - N/A   Overcast
2:53 PM 51.1°F 43.0°F 74% 30.36 in 10.0 miles Calm Calm - N/A   Overcast
3:53 PM 50.0°F 43.0°F 77% 30.36 in 10.0 miles Calm Calm - N/A   Overcast
4:53 PM 48.9°F 42.1°F 77% 30.34 in 10.0 miles Calm Calm - N/A   Partly Cloudy
5:53 PM 46.0°F 43.0°F 89% 30.32 in 10.0 miles Calm Calm - N/A   Partly Cloudy
6:08 PM 46.4°F 42.8°F 87% 30.32 in 10.0 miles Calm Calm - N/A   Mostly Cloudy
6:53 PM 45.0°F 43.0°F 93% 30.31 in 10.0 miles Calm Calm - N/A   Overcast
7:33 PM 42.8°F 39.2°F 87% 30.30 in 10.0 miles Calm Calm - N/A   Scattered Clouds
7:53 PM 42.1°F 41.0°F 96% 30.29 in 10.0 miles Calm Calm - N/A   Partly Cloudy
8:07 PM 41.0°F 39.2°F 93% 30.28 in 10.0 miles Calm Calm - N/A   Mostly Cloudy
8:53 PM 44.1°F 42.1°F 93% 30.26 in 10.0 miles Calm Calm - N/A   Overcast
9:53 PM 45.0°F 43.0°F 93% 30.23 in 10.0 miles Calm Calm - N/A   Overcast
10:53 PM 45.0°F 43.0°F 93% 30.19 in 10.0 miles Calm Calm - N/A   Overcast
11:53 PM 45.0°F 43.0°F 93% 30.14 in 10.0 miles Calm Calm - N/A   Overcast
Moon Phase
Dec. 10 Dec. 13 Dec. 20 Dec. 28 Jan. 04
Sunrise:07:40 AM (PST) Moon Rise:04:25 AM (PST)12/10
Sunset:04:26 PM (PST) Moon Set:02:24 PM (PST)12/10

Copyright © 2014 The Weather Underground, Inc.